Zurück zum Katalog

STARLINK-36681

AktivKommunikationVLEO
NORAD 68720·PAYLOAD·🇺🇸 United States

Gestartet Apr 14, 2026 von Cape Canaveral Space Force Station

Loading…

Nächste Überflüge (nächste 24 Stunden)

TLE

AktuellSource: CelesTrak SupGP

Epoche: Sep 15, 2026, 03:27 UTC

1 68720C 26081X   26258.14423611 -.00057793  00000+0 -17075-2 0  2587
2 68720  53.1581 230.5451 0001427  86.0232 113.3877 15.34420370    13

Verfolge STARLINK-36681 in Echtzeit mit AllMySat

Download on the App Store